Location: *
(48.8780°N, 19.2358°E)
Time: 18:09:12
(UTC+00:00)

STARLINK-81 - Pass Details

Date: 18 October 2019
Orbit: 549 x 551 km, 53.0° (Epoch: 20 November)

Event Time Altitude Azimuth Distance (km) Brightness Sun altitude
Rises 16:18:00 0° 248° (WSW) 2,710 9.1 -5.6°
Reaches altitude 10° 16:20:13 10° 249° (WSW) 1,819 7.9 -6.0°
Maximum altitude 16:24:22 81° 337° (NNW) 562 3.7 -6.6°
Drops below altitude 10° 16:28:31 10° 65° (ENE) 1,827 5.7 -7.3°
Enters shadow 16:28:53 - 65° (ENE) 1,968 5.8 -7.4°
